Weather History for Crane Lake, MN

Change the Weather History Date:

Thursday, February 21, 2013

  Actual Average Record
Temperature  
Mean Temperature 0 °F -  
Max Temperature 26 °F 25 °F 50 °F (2000)
Min Temperature -25 °F 4 °F -25 °F (2013)
Degree Days  
Heating Degree Days 64    
Moisture  
Dew Point -14 °F    
Average Humidity 59    
Maximum Humidity 84    
Minimum Humidity 34    
Precipitation  
Precipitation 0.00 in - - ()
Sea Level Pressure  
Sea Level Pressure 30.43 in    
Wind  
Wind Speed 1 mph (NNE)    
Max Wind Speed 6 mph    
Max Gust Speed -    
Visibility 10 miles    
Events      
Averages and records for this station are not official NWS values.
T = Trace of Precipitation, MM = Missing Value Source: NWS Daily Summary

Daily Weather History Graph

Daily Weather History Graph

Search for Another Location

Airport:

Trip Planner

Search our weather history database for the weather conditions in past years. The results will help you decide how hot, cold, wet, or windy it might be!

Date:

Astronomy

Feb. 21, 2013 Rise Set
Actual Time 7:05 AM CST 5:42 PM CST
Civil Twilight 6:34 AM CST 6:13 PM CST
Nautical Twilight 5:57 AM CST 6:50 PM CST
Astronomical Twilight 5:21 AM CST 7:26 PM CST
Moon 1:45 PM CST 4:23 AM CST
Length of Visible Light 11h 39m
Length of Day
10h 36m
Waxing Gibbous, 84% of the Moon is Illuminated
Feb 21
Waxing Gibbous
Feb 25
Full
Mar 4
Last Quarter
Mar 11
New
Mar 19
First Quarter

Hourly Weather History & Observations

Time (CST) Temp. Windchill Dew Point Humidity Pressure Visibility Wind Dir Wind Speed Gust Speed Precip Events Conditions
12:10 AM -20.2 °F - -27.4 °F 69% 30.47 in 10.0 mi Calm Calm - N/A   Clear
12:30 AM -20.2 °F - -27.4 °F 69% 30.47 in 10.0 mi Calm Calm - N/A   Clear
12:50 AM -20.2 °F - -27.4 °F 69% 30.48 in 10.0 mi Calm Calm - N/A   Clear
1:10 AM -18.4 °F - -25.6 °F 70% 30.47 in 10.0 mi Calm Calm - N/A   Clear
1:30 AM -18.4 °F - -25.6 °F 70% 30.48 in 10.0 mi Calm Calm - N/A   Clear
1:50 AM -16.6 °F - -23.8 °F 70% 30.48 in 10.0 mi Calm Calm - N/A   Clear
2:10 AM -16.6 °F - -23.8 °F 70% 30.49 in 10.0 mi Calm Calm - N/A   Clear
2:30 AM -18.4 °F - -25.6 °F 70% 30.49 in 10.0 mi Calm Calm - N/A   Clear
2:50 AM -18.4 °F - -25.6 °F 70% 30.50 in 10.0 mi Calm Calm - N/A   Clear
3:10 AM -20.2 °F - -27.4 °F 69% 30.50 in 10.0 mi Calm Calm - N/A   Clear
3:31 AM -20.2 °F - -27.4 °F 69% 30.50 in 10.0 mi Calm Calm - N/A   Clear
3:51 AM -20.2 °F - -27.4 °F 69% 30.50 in 10.0 mi Calm Calm - N/A   Clear
4:10 AM -22.0 °F - -29.2 °F 69% 30.50 in 10.0 mi Calm Calm - N/A   Clear
4:30 AM -23.8 °F - -29.2 °F 76% 30.51 in 10.0 mi Calm Calm - N/A   Clear
4:51 AM -23.8 °F - -29.2 °F 76% 30.52 in 10.0 mi Calm Calm - N/A   Clear
5:10 AM -23.8 °F - -31.0 °F 69% 30.52 in 10.0 mi Calm Calm - N/A   Clear
5:50 AM -23.8 °F - -31.0 °F 69% 30.52 in 10.0 mi Calm Calm - N/A   Clear
6:10 AM -25.6 °F - -32.8 °F 69% 30.53 in 10.0 mi Calm Calm - N/A   Clear
6:30 AM -25.6 °F - -32.8 °F 69% 30.52 in 10.0 mi Calm Calm - N/A   Clear
6:50 AM -25.6 °F - -32.8 °F 69% 30.52 in 10.0 mi Calm Calm - N/A   Clear
7:10 AM -25.6 °F - -32.8 °F 69% 30.51 in 10.0 mi Calm Calm - N/A   Clear
7:30 AM -25.6 °F - -32.8 °F 69% 30.51 in 10.0 mi Calm Calm - N/A   Clear
7:50 AM -23.8 °F - -31.0 °F 69% 30.49 in 10.0 mi Calm Calm - N/A   Clear
8:10 AM -22.0 °F - -27.4 °F 76% 30.48 in 10.0 mi Calm Calm - N/A   Clear
8:30 AM -18.4 °F - -25.6 °F 70% 30.46 in 10.0 mi Calm Calm - N/A   Clear
8:50 AM -14.8 °F - -18.4 °F 84% 30.45 in 10.0 mi Calm Calm - N/A   Clear
9:10 AM -7.6 °F - -13.0 °F 77% 30.45 in 10.0 mi Calm Calm - N/A   Clear
9:30 AM -0.4 °F - -9.4 °F 66% 30.48 in 10.0 mi Calm Calm - N/A   Clear
9:51 AM 3.2 °F - -5.8 °F 66% 30.51 in 10.0 mi Calm Calm - N/A   Clear
10:10 AM 8.6 °F - -5.8 °F 52% 30.52 in 10.0 mi Calm Calm - N/A   Clear
10:30 AM 8.6 °F - -7.6 °F 48% 30.50 in 10.0 mi Calm Calm - N/A   Clear
11:10 AM 12.2 °F 6.1 °F -2.2 °F 53% 30.50 in 10.0 mi NNW 3.5 mph - N/A   Clear
11:30 AM 14.0 °F 8.2 °F -2.2 °F 49% 30.48 in 10.0 mi NNW 3.5 mph - N/A   Clear
11:50 AM 15.8 °F 8.6 °F -2.2 °F 45% 30.46 in 10.0 mi NNE 4.6 mph - N/A   Clear
12:10 PM 19.4 °F 14.3 °F -0.4 °F 42% 30.45 in 10.0 mi North 3.5 mph - N/A   Clear
12:31 PM 21.2 °F 13.6 °F 1.4 °F 42% 30.44 in 10.0 mi NE 5.8 mph - N/A   Clear
12:50 PM 19.4 °F 14.3 °F -0.4 °F 42% 30.44 in 10.0 mi NE 3.5 mph - N/A   Clear
1:10 PM 21.2 °F 13.6 °F -0.4 °F 39% 30.43 in 10.0 mi NNE 5.8 mph - N/A   Clear
1:30 PM 21.2 °F - -0.4 °F 39% 30.43 in 10.0 mi Calm Calm - N/A   Clear
1:50 PM 23.0 °F 17.0 °F -0.4 °F 36% 30.42 in 10.0 mi North 4.6 mph - N/A   Clear
2:10 PM 23.0 °F 15.8 °F 1.4 °F 39% 30.40 in 10.0 mi North 5.8 mph - N/A   Clear
2:30 PM 23.0 °F 17.0 °F 3.2 °F 43% 30.39 in 10.0 mi North 4.6 mph - N/A   Clear
2:50 PM 24.8 °F - 3.2 °F 40% 30.39 in 10.0 mi Calm Calm - N/A   Clear
3:10 PM 26.6 °F - 1.4 °F 34% 30.38 in 10.0 mi Calm Calm - N/A   Clear
3:31 PM 26.6 °F - 1.4 °F 34% 30.37 in 10.0 mi Calm Calm - N/A   Clear
3:50 PM 26.6 °F 20.0 °F 1.4 °F 34% 30.36 in 10.0 mi NE 5.8 mph - N/A   Clear
4:10 PM 24.8 °F 19.1 °F 1.4 °F 36% 30.35 in 10.0 mi NE 4.6 mph - N/A   Clear
4:30 PM 24.8 °F 17.9 °F -0.4 °F 34% 30.35 in 10.0 mi NE 5.8 mph - N/A   Clear
4:50 PM 23.0 °F - -0.4 °F 36% 30.36 in 10.0 mi Calm Calm - N/A   Clear
5:10 PM 19.4 °F - -2.2 °F 39% 30.36 in 10.0 mi Calm Calm - N/A   Clear
5:30 PM 15.8 °F - -2.2 °F 45% 30.36 in 10.0 mi Calm Calm - N/A   Clear
5:50 PM 12.2 °F - -7.6 °F 41% 30.36 in 10.0 mi Calm Calm - N/A   Clear
6:10 PM 8.6 °F - -9.4 °F 44% 30.36 in 10.0 mi Calm Calm - N/A   Clear
6:30 PM 5.0 °F - -11.2 °F 47% 30.36 in 10.0 mi Calm Calm - N/A   Clear
6:51 PM 3.2 °F - -9.4 °F 56% 30.35 in 10.0 mi Calm Calm - N/A   Clear
7:10 PM 1.4 °F - -11.2 °F 56% 30.35 in 10.0 mi Calm Calm - N/A   Clear
7:30 PM -0.4 °F - -11.2 °F 60% 30.34 in 10.0 mi Calm Calm - N/A   Clear
7:50 PM -2.2 °F - -11.2 °F 66% 30.33 in 10.0 mi Calm Calm - N/A   Clear
8:10 PM -2.2 °F - -11.2 °F 66% 30.32 in 10.0 mi Calm Calm - N/A   Clear
8:30 PM -2.2 °F - -11.2 °F 66% 30.32 in 10.0 mi Calm Calm - N/A   Clear
8:50 PM -4.0 °F - -11.2 °F 71% 30.31 in 10.0 mi Calm Calm - N/A   Clear
9:10 PM -4.0 °F - -11.2 °F 71% 30.30 in 10.0 mi Calm Calm - N/A   Clear
9:30 PM -5.8 °F - -11.2 °F 77% 30.30 in 10.0 mi Calm Calm - N/A   Clear
9:50 PM -5.8 °F - -11.2 °F 77% 30.29 in 10.0 mi Calm Calm - N/A   Clear
10:10 PM -5.8 °F - -11.2 °F 77% 30.29 in 10.0 mi Calm Calm - N/A   Clear